[Date Prev][Date Next][Thread Prev][Thread Next] - [Date Index][Thread Index][Author Index]
2 Line ISS Keps 7-13
- Subject: [sarex] 2 Line ISS Keps 7-13
- From: "Dave Larsen PhD" <doc@xxxxxxxxxxx>
- Date: Fri, 13 Jul 2001 03:19:02 -0700
ISS
1 25544U 98067A 01194.04172454 .00034723 00000-0 35898-3 0 2057
2 25544 51.5721 317.8145 0016197 278.0166 61.5307 15.64243564151117
----
Via the sarex mailing list at AMSAT.ORG courtesy of AMSAT-NA.
To unsubscribe, send "unsubscribe sarex" to Majordomo@amsat.org
AMSAT Home